Paris, TX

7:58 AM CDT on July 23, 2017 (GMT -0500)
Cox

Weather History for KPRX - May, 2013

Change the Weather History Date:

Monday, May 20, 2013

  Actual Average Record
Temperature  
Mean Temperature 76 °F -  
Max Temperature 86 °F 79 °F 93 °F (2005)
Min Temperature 69 °F 61 °F 53 °F (2002)
Cooling Degree Days 12    
Growing Degree Days 26 (Base 50)    
Moisture  
Dew Point 67 °F    
Average Humidity 70    
Maximum Humidity 78    
Minimum Humidity 58    
Precipitation  
Precipitation 0.00 in - - ()
Sea Level Pressure  
Sea Level Pressure 29.80 in    
Wind  
Wind Speed 14 mph (South)    
Max Wind Speed 21 mph    
Max Gust Speed 30 mph    
Visibility 10 miles    
Events      
Averages and records for this station are not official NWS values.
T = Trace of Precipitation, MM = Missing Value Source: NWS Daily Summary

Daily Weather History Graph

Daily Weather History Graph

Search for Another Location

Airport or City:

Trip Planner

Search our weather history database for the weather conditions in past years. The results will help you decide how hot, cold, wet, or windy it might be!

Date:

Astronomy

May. 20, 2013 Rise Set
Actual Time 6:17 AM CDT 8:19 PM CDT
Civil Twilight 5:49 AM CDT 8:47 PM CDT
Nautical Twilight 5:16 AM CDT 9:21 PM CDT
Astronomical Twilight 4:39 AM CDT 9:57 PM CDT
Moon 3:40 PM CDT (5/20) 2:58 AM CDT (5/20)
Length of Visible Light 14h 57m
Length of Day
14h 01m
Waxing Gibbous, 75% of the Moon is Illuminated
May 20
Waxing Gibbous
May 24
Full
May 31
Last Quarter
Jun 8
New
Jun 16
First Quarter

Hourly Weather History & Observations

Time (CDT) Temp. Heat Index Dew Point Humidity Pressure Visibility Wind Dir Wind Speed Gust Speed Precip Events Conditions
12:15 AM 77.0 °F - 62.6 °F 61% 29.78 in 10.0 mi South 13.8 mph 24.2 mph N/A   Clear
12:35 AM 75.2 °F - 64.4 °F 69% 29.78 in 10.0 mi South 16.1 mph 21.9 mph N/A   Clear
12:55 AM 75.2 °F - 64.4 °F 69% 29.78 in 10.0 mi South 15.0 mph 23.0 mph N/A   Clear
1:15 AM 75.2 °F - 64.4 °F 69% 29.78 in 10.0 mi South 17.3 mph - N/A   Clear
1:35 AM 75.2 °F - 64.4 °F 69% 29.79 in 10.0 mi South 17.3 mph 23.0 mph N/A   Clear
1:55 AM 73.4 °F - 64.4 °F 73% 29.78 in 10.0 mi South 16.1 mph - N/A   Clear
2:15 AM 73.4 °F - 64.4 °F 73% 29.78 in 10.0 mi South 13.8 mph 26.5 mph N/A   Clear
2:35 AM 73.4 °F - 64.4 °F 73% 29.79 in 10.0 mi South 12.7 mph - N/A   Clear
3:15 AM 71.6 °F - 64.4 °F 78% 29.79 in 10.0 mi South 15.0 mph - N/A   Clear
3:35 AM 73.4 °F - 64.4 °F 73% 29.79 in 10.0 mi South 11.5 mph 23.0 mph N/A   Mostly Cloudy
3:55 AM 73.4 °F - 64.4 °F 73% 29.80 in 10.0 mi South 12.7 mph 19.6 mph N/A   Overcast
4:15 AM 73.4 °F - 64.4 °F 73% 29.80 in 10.0 mi South 13.8 mph 19.6 mph N/A   Overcast
4:35 AM 73.4 °F - 64.4 °F 73% 29.80 in 10.0 mi South 13.8 mph - N/A   Overcast
4:55 AM 73.4 °F - 64.4 °F 73% 29.80 in 10.0 mi South 16.1 mph 20.7 mph N/A   Overcast
5:15 AM 73.4 °F - 64.4 °F 73% 29.80 in 10.0 mi South 13.8 mph - N/A   Overcast
5:35 AM 73.4 °F - 64.4 °F 73% 29.81 in 10.0 mi South 13.8 mph 20.7 mph N/A   Overcast
5:55 AM 73.4 °F - 64.4 °F 73% 29.81 in 10.0 mi South 15.0 mph 20.7 mph N/A   Overcast
6:15 AM 73.4 °F - 64.4 °F 73% 29.82 in 10.0 mi South 11.5 mph - N/A   Overcast
6:35 AM 73.4 °F - 64.4 °F 73% 29.83 in 10.0 mi South 9.2 mph - N/A   Overcast
7:15 AM 73.4 °F - 64.4 °F 73% 29.85 in 10.0 mi South 10.4 mph - N/A   Overcast
7:35 AM 73.4 °F - 66.2 °F 78% 29.86 in 10.0 mi South 9.2 mph - N/A   Overcast
7:55 AM 73.4 °F - 66.2 °F 78% 29.87 in 10.0 mi South 11.5 mph - N/A   Overcast
8:15 AM 73.4 °F - 66.2 °F 78% 29.87 in 10.0 mi South 10.4 mph 17.3 mph N/A   Overcast
8:35 AM 73.4 °F - 66.2 °F 78% 29.87 in 10.0 mi South 15.0 mph 18.4 mph N/A   Overcast
8:55 AM 75.2 °F - 66.2 °F 73% 29.87 in 10.0 mi South 13.8 mph - N/A   Overcast
9:15 AM 75.2 °F - 66.2 °F 73% 29.87 in 10.0 mi South 16.1 mph - N/A   Overcast
9:35 AM 75.2 °F - 66.2 °F 73% 29.87 in 10.0 mi South 16.1 mph - N/A   Overcast
9:55 AM 77.0 °F - 66.2 °F 69% 29.86 in 10.0 mi South 16.1 mph 25.3 mph N/A   Overcast
10:35 AM 77.0 °F - 66.2 °F 69% 29.86 in 10.0 mi South 17.3 mph 24.2 mph N/A   Overcast
10:55 AM 77.0 °F - 66.2 °F 69% 29.86 in 10.0 mi South 16.1 mph 24.2 mph N/A   Overcast
11:15 AM 78.8 °F - 66.2 °F 65% 29.86 in 10.0 mi South 17.3 mph 24.2 mph N/A   Overcast
11:35 AM 78.8 °F - 66.2 °F 65% 29.86 in 10.0 mi South 13.8 mph 25.3 mph N/A   Overcast
11:55 AM 78.8 °F - 68.0 °F 69% 29.86 in 10.0 mi South 15.0 mph 23.0 mph N/A   Overcast
12:15 PM 80.6 °F 83.9 °F 69.8 °F 70% 29.86 in 10.0 mi South 17.3 mph 23.0 mph N/A   Overcast
12:35 PM 80.6 °F 83.9 °F 69.8 °F 70% 29.85 in 10.0 mi South 19.6 mph 25.3 mph N/A   Mostly Cloudy
12:55 PM 82.4 °F 86.3 °F 69.8 °F 66% 29.83 in 10.0 mi South 19.6 mph 24.2 mph N/A   Mostly Cloudy
1:15 PM 82.4 °F 86.3 °F 69.8 °F 66% 29.83 in 10.0 mi South 17.3 mph - N/A   Mostly Cloudy
1:55 PM 82.4 °F 86.3 °F 69.8 °F 66% 29.82 in 10.0 mi South 18.4 mph 25.3 mph N/A   Overcast
2:15 PM 82.4 °F 86.3 °F 69.8 °F 66% 29.82 in 10.0 mi South 18.4 mph 25.3 mph N/A   Mostly Cloudy
2:35 PM 82.4 °F 86.3 °F 69.8 °F 66% 29.81 in 10.0 mi South 19.6 mph 27.6 mph N/A   Mostly Cloudy
2:55 PM 84.2 °F 88.4 °F 69.8 °F 62% 29.79 in 10.0 mi South 16.1 mph 26.5 mph N/A   Mostly Cloudy
3:15 PM 84.2 °F 88.4 °F 69.8 °F 62% 29.78 in 10.0 mi South 18.4 mph 26.5 mph N/A   Mostly Cloudy
3:35 PM 84.2 °F 88.4 °F 69.8 °F 62% 29.76 in 10.0 mi South 18.4 mph 25.3 mph N/A   Partly Cloudy
3:55 PM 84.2 °F 88.4 °F 69.8 °F 62% 29.75 in 10.0 mi South 20.7 mph 28.8 mph N/A   Mostly Cloudy
4:15 PM 84.2 °F 88.4 °F 69.8 °F 62% 29.74 in 10.0 mi South 20.7 mph 29.9 mph N/A   Scattered Clouds
4:35 PM 84.2 °F 88.4 °F 69.8 °F 62% 29.75 in 10.0 mi South 15.0 mph 27.6 mph N/A   Partly Cloudy
4:55 PM 84.2 °F 87.3 °F 68.0 °F 58% 29.74 in 10.0 mi South 12.7 mph - N/A   Clear
5:15 PM 84.2 °F 87.3 °F 68.0 °F 58% 29.74 in 10.0 mi South 17.3 mph 25.3 mph N/A   Clear
5:35 PM 82.4 °F 86.3 °F 69.8 °F 66% 29.73 in 10.0 mi South 11.5 mph - N/A   Clear
5:55 PM 82.4 °F 86.3 °F 69.8 °F 66% 29.73 in 10.0 mi South 10.4 mph - N/A   Clear
6:15 PM 82.4 °F 86.3 °F 69.8 °F 66% 29.73 in 10.0 mi South 8.1 mph - N/A   Clear
6:35 PM 80.6 °F 83.9 °F 69.8 °F 70% 29.74 in 10.0 mi South 8.1 mph - N/A   Clear
6:55 PM 80.6 °F 83.9 °F 69.8 °F 70% 29.73 in 10.0 mi South 6.9 mph - N/A   Partly Cloudy
7:15 PM 80.6 °F 83.9 °F 69.8 °F 70% 29.74 in 10.0 mi South 8.1 mph - N/A   Partly Cloudy
7:35 PM 78.8 °F - 69.8 °F 74% 29.73 in 10.0 mi SSE 9.2 mph - N/A   Scattered Clouds
7:55 PM 78.8 °F - 69.8 °F 74% 29.75 in 10.0 mi South 10.4 mph - N/A   Clear
8:15 PM 78.8 °F - 68.0 °F 69% 29.76 in 10.0 mi South 8.1 mph - N/A   Clear
8:35 PM 78.8 °F - 68.0 °F 69% 29.77 in 10.0 mi South 8.1 mph - N/A   Clear
9:15 PM 78.8 °F - 68.0 °F 69% 29.78 in 10.0 mi East 6.9 mph - N/A   Clear
9:35 PM 77.0 °F - 66.2 °F 69% 29.80 in 10.0 mi ENE 11.5 mph 19.6 mph N/A   Mostly Cloudy
9:55 PM 77.0 °F - 66.2 °F 69% 29.80 in 10.0 mi NNE 17.3 mph - N/A   Overcast
10:15 PM 71.6 °F - 62.6 °F 73% 29.80 in 10.0 mi NNE 5.8 mph - N/A   Scattered Clouds
10:35 PM 71.6 °F - 62.6 °F 73% 29.84 in 10.0 mi NNE 8.1 mph - N/A   Mostly Cloudy
10:55 PM 69.8 °F - 60.8 °F 73% 29.83 in 10.0 mi ENE 11.5 mph - N/A   Mostly Cloudy
11:15 PM 69.8 °F - 60.8 °F 73% 29.83 in 10.0 mi East 8.1 mph - N/A   Clear
11:35 PM 69.8 °F - 60.8 °F 73% 29.82 in 10.0 mi East 8.1 mph - N/A   Mostly Cloudy
11:55 PM 69.8 °F - 62.6 °F 78% 29.81 in 10.0 mi ESE 10.4 mph - N/A   Mostly Cloudy